Weather History for KFMH - July, 2013

Change the Weather History Date:

Sunday, July 14, 2013

  Actual Average Record
Temperature  
Mean Temperature 78 °F -  
Max Temperature 84 °F 76 °F 86 °F (1997)
Min Temperature 71 °F 60 °F 33 °F (1996)
Cooling Degree Days 12    
Growing Degree Days 28 (Base 50)    
Moisture  
Dew Point 73 °F    
Average Humidity 89    
Maximum Humidity 100    
Minimum Humidity 74    
Precipitation  
Precipitation 0.00 in - - ()
Sea Level Pressure  
Sea Level Pressure 30.27 in    
Wind  
Wind Speed 6 mph (WSW)    
Max Wind Speed 16 mph    
Max Gust Speed 20 mph    
Visibility 7 miles    
Events Fog , Rain    
Averages and records for this station are not official NWS values.
T = Trace of Precipitation, MM = Missing Value Source: NWS Daily Summary

Daily Weather History Graph

Daily Weather History Graph

Search for Another Location

Airport or City:

Trip Planner

Search our weather history database for the weather conditions in past years. The results will help you decide how hot, cold, wet, or windy it might be!

Date:

Astronomy

Jul. 14, 2013 Rise Set
Actual Time 5:20 AM EDT 8:15 PM EDT
Civil Twilight 4:47 AM EDT 8:48 PM EDT
Nautical Twilight 4:05 AM EDT 9:30 PM EDT
Astronomical Twilight 3:16 AM EDT 10:18 PM EDT
Moon 11:39 AM EDT (7/14) 11:19 PM EDT (7/14)
Length of Visible Light 16h 01m
Length of Day
14h 55m
Waxing Crescent, 35% of the Moon is Illuminated
Jul 14
Waxing Crescent
Jul 15
First Quarter
Jul 22
Full
Jul 29
Last Quarter
Aug 6
New

Hourly Weather History & Observations

Time (EDT) Temp. Heat Index Dew Point Humidity Pressure Visibility Wind Dir Wind Speed Gust Speed Precip Events Conditions
12:15 AM 71.6 °F - 71.6 °F 100% 30.30 in 0.8 mi South 3.5 mph - N/A   Overcast
12:35 AM 71.6 °F - 71.6 °F 100% 30.30 in 0.5 mi SSW 4.6 mph - N/A Fog Fog
12:55 AM 71.6 °F - 71.6 °F 100% 30.31 in 0.5 mi South 3.5 mph - N/A Fog Fog
1:15 AM 71.6 °F - 71.6 °F 100% 30.31 in 0.2 mi SW 4.6 mph - N/A Fog Fog
1:35 AM 71.6 °F - 71.6 °F 100% 30.31 in 0.2 mi West 3.5 mph - N/A Fog Fog
1:55 AM 71.6 °F - 71.6 °F 100% 30.31 in 0.2 mi Calm Calm - N/A Fog Fog
2:15 AM 71.6 °F - 71.6 °F 100% 30.30 in 0.2 mi WSW 4.6 mph - N/A Fog Fog
2:35 AM 71.6 °F - 71.6 °F 100% 30.30 in 0.2 mi WSW 4.6 mph - N/A Fog Fog
2:55 AM 71.6 °F - 71.6 °F 100% 30.30 in 0.2 mi WSW 5.8 mph - N/A Fog Fog
3:15 AM 71.6 °F - 71.6 °F 100% 30.30 in 0.2 mi WSW 4.6 mph - N/A Fog Fog
3:35 AM 71.6 °F - 71.6 °F 100% 30.30 in 0.2 mi WSW 3.5 mph - N/A Fog Fog
3:55 AM 71.6 °F - 71.6 °F 100% 30.30 in 0.2 mi West 5.8 mph - N/A Fog Fog
4:15 AM 71.6 °F - 71.6 °F 100% 30.29 in 0.2 mi WSW 5.8 mph - N/A Fog Fog
4:35 AM 71.6 °F - 71.6 °F 100% 30.29 in 0.2 mi WSW 4.6 mph - N/A Fog Fog
4:55 AM 71.6 °F - 71.6 °F 100% 30.30 in 0.5 mi West 5.8 mph - N/A Fog Fog
5:15 AM 71.6 °F - 71.6 °F 100% 30.30 in 0.5 mi SW 3.5 mph - N/A Fog Fog
5:35 AM 71.6 °F - 71.6 °F 100% 30.30 in 0.2 mi Calm Calm - N/A Fog Fog
5:55 AM 71.6 °F - 71.6 °F 100% 30.30 in 0.2 mi West 4.6 mph - N/A Fog Fog
6:15 AM 71.6 °F - 71.6 °F 100% 30.30 in 0.2 mi West 5.8 mph - N/A Fog Fog
6:35 AM 71.6 °F - 71.6 °F 100% 30.31 in 1.2 mi West 3.5 mph - N/A   Overcast
6:55 AM 71.6 °F - 71.6 °F 100% 30.31 in 2.0 mi WNW 4.6 mph - N/A   Overcast
7:15 AM 71.6 °F - 71.6 °F 100% 30.31 in 5.0 mi WNW 5.8 mph - N/A   Overcast
7:35 AM 73.4 °F - 73.4 °F 100% 30.31 in 5.0 mi WNW 4.6 mph - N/A   Overcast
7:55 AM 73.4 °F - 73.4 °F 100% 30.32 in 7.0 mi WNW 3.5 mph - N/A   Overcast
8:15 AM 73.4 °F - 73.4 °F 100% 30.32 in 7.0 mi NNW 3.5 mph - N/A   Overcast
8:35 AM 73.4 °F - 73.4 °F 100% 30.31 in 10.0 mi NW 4.6 mph - N/A   Overcast
8:55 AM 75.2 °F - 73.4 °F 94% 30.31 in 10.0 mi NW 4.6 mph - N/A   Overcast
9:15 AM 75.2 °F - 71.6 °F 89% 30.31 in 10.0 mi NW 5.8 mph - N/A   Overcast
9:35 AM 77.0 °F - 73.4 °F 89% 30.30 in 10.0 mi West 8.1 mph - N/A   Overcast
9:55 AM 77.0 °F - 73.4 °F 89% 30.30 in 10.0 mi NW 5.8 mph - N/A   Overcast
10:15 AM 78.8 °F - 73.4 °F 83% 30.30 in 10.0 mi NW 6.9 mph - N/A   Overcast
10:35 AM 80.6 °F 85.4 °F 73.4 °F 79% 30.29 in 10.0 mi WNW 10.4 mph - N/A   Overcast
10:55 AM 80.6 °F 85.4 °F 73.4 °F 79% 30.29 in 10.0 mi WNW 8.1 mph - N/A   Mostly Cloudy
11:15 AM 80.6 °F 85.4 °F 73.4 °F 79% 30.29 in 10.0 mi WNW 6.9 mph - N/A   Scattered Clouds
11:35 AM 82.4 °F 88.2 °F 73.4 °F 74% 30.28 in 10.0 mi West 5.8 mph - N/A   Scattered Clouds
11:55 AM 82.4 °F 88.2 °F 73.4 °F 74% 30.28 in 10.0 mi NW 5.8 mph - N/A   Scattered Clouds
12:15 PM 80.6 °F 85.4 °F 73.4 °F 79% 30.28 in 10.0 mi WNW 4.6 mph - N/A   Overcast
12:35 PM 82.4 °F 88.2 °F 73.4 °F 74% 30.27 in 10.0 mi WSW 5.8 mph - N/A   Mostly Cloudy
12:55 PM 82.4 °F 89.5 °F 75.2 °F 79% 30.27 in 10.0 mi SW 8.1 mph - N/A   Mostly Cloudy
1:15 PM 84.2 °F 92.3 °F 75.2 °F 74% 30.27 in 10.0 mi SW 9.2 mph - N/A   Mostly Cloudy
1:35 PM 84.2 °F 92.3 °F 75.2 °F 74% 30.27 in 10.0 mi SW 8.1 mph - N/A   Scattered Clouds
1:55 PM 84.2 °F 92.3 °F 75.2 °F 74% 30.26 in 10.0 mi SW 11.5 mph - N/A   Mostly Cloudy
2:15 PM 84.2 °F 92.3 °F 75.2 °F 74% 30.26 in 10.0 mi SSW 10.4 mph - N/A   Mostly Cloudy
2:35 PM 82.4 °F 89.5 °F 75.2 °F 79% 30.26 in 10.0 mi South 10.4 mph - N/A   Mostly Cloudy
2:55 PM 82.4 °F 88.2 °F 73.4 °F 74% 30.25 in 10.0 mi South 8.1 mph - N/A   Scattered Clouds
3:15 PM 82.4 °F 89.5 °F 75.2 °F 79% 30.25 in 10.0 mi South 10.4 mph - N/A   Partly Cloudy
3:35 PM 82.4 °F 89.5 °F 75.2 °F 79% 30.24 in 10.0 mi SSW 11.5 mph - N/A   Scattered Clouds
3:55 PM - - - N/A% - - North - - N/A   Unknown
4:15 PM 82.4 °F 88.2 °F 73.4 °F 74% 30.23 in 10.0 mi South 11.5 mph - N/A   Unknown
4:35 PM 82.4 °F 88.2 °F 73.4 °F 74% 30.23 in 10.0 mi SW 9.2 mph - N/A   Mostly Cloudy
4:55 PM 82.4 °F 88.2 °F 73.4 °F 74% 30.23 in 10.0 mi WSW 13.8 mph - N/A   Mostly Cloudy
5:15 PM 80.6 °F 85.4 °F 73.4 °F 79% 30.23 in 10.0 mi SW 11.5 mph - N/A   Overcast
5:35 PM 80.6 °F 85.4 °F 73.4 °F 79% 30.22 in 10.0 mi SW 11.5 mph - N/A   Mostly Cloudy
5:55 PM 80.6 °F 85.4 °F 73.4 °F 79% 30.22 in 10.0 mi SW 12.7 mph - N/A   Partly Cloudy
6:15 PM 80.6 °F 85.4 °F 73.4 °F 79% 30.21 in 10.0 mi SW 15.0 mph 19.6 mph N/A   Partly Cloudy
6:35 PM 78.8 °F - 73.4 °F 83% 30.21 in 10.0 mi WSW 12.7 mph - N/A   Partly Cloudy
6:55 PM 78.8 °F - 73.4 °F 83% 30.21 in 10.0 mi WSW 10.4 mph - N/A   Mostly Cloudy
7:15 PM 77.0 °F - 73.4 °F 89% 30.22 in 10.0 mi West 6.9 mph - N/A   Mostly Cloudy
7:35 PM 77.0 °F - 73.4 °F 89% 30.22 in 10.0 mi NE 3.5 mph - N/A   Overcast
7:55 PM 77.0 °F - 73.4 °F 89% 30.22 in 9.0 mi Calm Calm - N/A   Overcast
8:15 PM 77.0 °F - 73.4 °F 89% 30.22 in 10.0 mi Calm Calm - N/A   Mostly Cloudy
8:35 PM 77.0 °F - 73.4 °F 89% 30.22 in 10.0 mi South 3.5 mph - N/A   Overcast
8:55 PM 77.0 °F - 73.4 °F 89% 30.22 in 6.0 mi SW 8.1 mph - N/A Rain Light Rain
9:15 PM 75.2 °F - 73.4 °F 94% 30.23 in 10.0 mi WSW 5.8 mph - N/A   Overcast
9:35 PM 75.2 °F - 71.6 °F 89% 30.23 in 10.0 mi WSW 3.5 mph - N/A   Overcast
10:15 PM 75.2 °F - 71.6 °F 89% 30.22 in 10.0 mi West 4.6 mph - N/A   Mostly Cloudy
10:35 PM 75.2 °F - 71.6 °F 89% 30.22 in 10.0 mi West 3.5 mph - N/A   Mostly Cloudy
10:55 PM 75.2 °F - 71.6 °F 89% 30.22 in 10.0 mi WNW 3.5 mph - N/A   Overcast
11:15 PM 75.2 °F - 71.6 °F 89% 30.22 in 10.0 mi Calm Calm - N/A   Overcast
11:35 PM 75.2 °F - 71.6 °F 89% 30.22 in 10.0 mi West 3.5 mph - N/A   Mostly Cloudy
11:55 PM 75.2 °F - 71.6 °F 89% 30.22 in 10.0 mi West 3.5 mph - N/A   Overcast